Time,TemperatureF,DewpointF,PressureIn,WindDirection,WindDirectionDegrees,WindSpeedMPH,WindSpeedGustMPH,Humidity,HourlyPrecipIn,Conditions,Clouds,dailyrainin,SoftwareType,DateUTC
2013-05-18 00:02:00,67.0,59.0,-100.00,SSW,200,4.0,5.0,74,-99.99,,,-99.99,,2013-05-18 05:02:00,
2013-05-18 00:12:00,67.0,59.0,-100.00,SSW,200,4.0,5.0,74,-99.99,,,-99.99,,2013-05-18 05:12:00,
2013-05-18 00:22:00,66.0,58.0,-100.00,SSE,155,2.0,2.0,75,-99.99,,,-99.99,,2013-05-18 05:22:00,
2013-05-18 00:31:00,65.0,58.0,-100.00,SE,125,4.0,4.0,79,-99.99,,,-99.99,,2013-05-18 05:31:00,
2013-05-18 00:42:00,65.0,58.0,-100.00,SE,125,4.0,4.0,79,-99.99,,,-99.99,,2013-05-18 05:42:00,
2013-05-18 00:52:00,64.0,58.0,-100.00,SE,125,3.0,4.0,81,-99.99,,,-99.99,,2013-05-18 05:52:00,
2013-05-18 01:02:00,64.0,58.0,-100.00,SE,125,3.0,4.0,81,-99.99,,,-99.99,,2013-05-18 06:02:00,
2013-05-18 01:11:00,64.0,59.0,-100.00,SE,125,0.0,0.0,83,-99.99,,,-99.99,,2013-05-18 06:11:00,
2013-05-18 01:22:00,64.0,59.0,-100.00,SE,130,1.0,2.0,84,-99.99,,,-99.99,,2013-05-18 06:22:00,
2013-05-18 01:32:00,64.0,59.0,-100.00,SE,130,1.0,2.0,84,-99.99,,,-99.99,,2013-05-18 06:32:00,
2013-05-18 01:42:00,64.0,59.0,-100.00,SE,130,1.0,2.0,84,-99.99,,,-99.99,,2013-05-18 06:42:00,
2013-05-18 01:52:00,63.0,59.0,-100.00,South,170,2.0,3.0,87,-99.99,,,-99.99,,2013-05-18 06:52:00,
2013-05-18 02:01:00,63.0,59.0,-100.00,South,170,2.0,3.0,87,-99.99,,,-99.99,,2013-05-18 07:01:00,
2013-05-18 02:12:00,62.0,59.0,-100.00,SSE,160,2.0,3.0,88,-99.99,,,-99.99,,2013-05-18 07:12:00,
2013-05-18 02:21:00,63.0,59.0,-100.00,SSE,165,4.0,4.0,88,-99.99,,,-99.99,,2013-05-18 07:21:00,
2013-05-18 02:31:00,63.0,60.0,-100.00,South,170,2.0,4.0,89,-99.99,,,-99.99,,2013-05-18 07:31:00,
2013-05-18 02:42:00,63.0,60.0,-100.00,South,170,2.0,4.0,89,-99.99,,,-99.99,,2013-05-18 07:42:00,
2013-05-18 02:52:00,63.0,60.0,-100.00,SSE,160,3.0,4.0,89,-99.99,,,-99.99,,2013-05-18 07:52:00,
2013-05-18 03:01:00,63.0,60.0,-100.00,SSE,160,3.0,4.0,89,-99.99,,,-99.99,,2013-05-18 08:01:00,
2013-05-18 03:11:00,62.0,59.0,-100.00,SE,135,2.0,2.0,89,-99.99,,,-99.99,,2013-05-18 08:11:00,
2013-05-18 03:21:00,61.0,58.0,-100.00,SE,140,3.0,4.0,89,-99.99,,,-99.99,,2013-05-18 08:21:00,
2013-05-18 03:32:00,62.0,59.0,-100.00,SSE,160,4.0,4.0,90,-99.99,,,-99.99,,2013-05-18 08:32:00,
2013-05-18 03:42:00,62.0,59.0,-100.00,SSE,160,4.0,4.0,90,-99.99,,,-99.99,,2013-05-18 08:42:00,
2013-05-18 03:52:00,61.0,58.0,-100.00,SE,135,2.0,3.0,91,-99.99,,,-99.99,,2013-05-18 08:52:00,
2013-05-18 04:02:00,61.0,58.0,-100.00,SE,135,2.0,3.0,91,-99.99,,,-99.99,,2013-05-18 09:02:00,
2013-05-18 04:11:00,61.0,58.0,-100.00,SE,125,1.0,1.0,91,-99.99,,,-99.99,,2013-05-18 09:11:00,
2013-05-18 04:22:00,60.0,58.0,-100.00,SSE,150,2.0,2.0,91,-99.99,,,-99.99,,2013-05-18 09:22:00,
2013-05-18 04:32:00,60.0,58.0,-100.00,SSE,150,4.0,4.0,92,-99.99,,,-99.99,,2013-05-18 09:32:00,
2013-05-18 04:43:00,60.0,58.0,-100.00,SSE,150,4.0,4.0,92,-99.99,,,-99.99,,2013-05-18 09:43:00,
2013-05-18 04:53:00,60.0,58.0,-100.00,SSE,165,2.0,3.0,93,-99.99,,,-99.99,,2013-05-18 09:53:00,
2013-05-18 05:03:00,60.0,58.0,-100.00,SSE,165,2.0,3.0,93,-99.99,,,-99.99,,2013-05-18 10:03:00,
2013-05-18 05:12:00,60.0,58.0,-100.00,SE,135,1.0,2.0,93,-99.99,,,-99.99,,2013-05-18 10:12:00,
2013-05-18 05:23:00,60.0,58.0,-100.00,SE,135,1.0,2.0,93,-99.99,,,-99.99,,2013-05-18 10:23:00,
2013-05-18 05:33:00,59.0,57.0,-100.00,SSE,165,3.0,4.0,93,-99.99,,,-99.99,,2013-05-18 10:33:00,
2013-05-18 05:42:00,59.0,57.0,-100.00,SSE,165,3.0,4.0,93,-99.99,,,-99.99,,2013-05-18 10:42:00,
2013-05-18 05:52:00,60.0,58.0,-100.00,SE,140,1.0,1.0,93,-99.99,,,-99.99,,2013-05-18 10:52:00,
2013-05-18 06:03:00,60.0,58.0,-100.00,SE,140,1.0,1.0,93,-99.99,,,-99.99,,2013-05-18 11:03:00,
2013-05-18 06:12:00,60.0,58.0,-100.00,SE,140,1.0,1.0,93,-99.99,,,-99.99,,2013-05-18 11:12:00,
2013-05-18 06:22:00,60.0,58.0,-100.00,SE,140,1.0,1.0,93,-99.99,,,-99.99,,2013-05-18 11:22:00,
2013-05-18 06:33:00,60.0,58.0,-100.00,East,95,2.0,2.0,93,-99.99,,,-99.99,,2013-05-18 11:33:00,
2013-05-18 06:42:00,60.0,58.0,-100.00,East,95,2.0,2.0,93,-99.99,,,-99.99,,2013-05-18 11:42:00,
2013-05-18 06:52:00,60.0,58.0,-100.00,East,95,2.0,2.0,93,-99.99,,,-99.99,,2013-05-18 11:52:00,
2013-05-18 07:01:00,60.0,58.0,-100.00,East,95,2.0,2.0,93,-99.99,,,-99.99,,2013-05-18 12:01:00,
2013-05-18 07:12:00,62.0,60.0,-100.00,NE,40,1.0,2.0,93,-99.99,,,-99.99,,2013-05-18 12:12:00,
2013-05-18 07:23:00,62.0,60.0,-100.00,East,85,2.0,3.0,93,-99.99,,,-99.99,,2013-05-18 12:23:00,
2013-05-18 07:33:00,62.0,60.0,-100.00,ENE,70,3.0,4.0,93,-99.99,,,-99.99,,2013-05-18 12:33:00,
2013-05-18 07:42:00,62.0,60.0,-100.00,ENE,70,3.0,4.0,93,-99.99,,,-99.99,,2013-05-18 12:42:00,
2013-05-18 07:52:00,64.0,62.0,-100.00,East,80,2.0,4.0,92,-99.99,,,-99.99,,2013-05-18 12:52:00,
2013-05-18 08:01:00,64.0,62.0,-100.00,East,80,2.0,4.0,92,-99.99,,,-99.99,,2013-05-18 13:01:00,
2013-05-18 08:11:00,64.0,62.0,-100.00,East,85,4.0,4.0,91,-99.99,,,-99.99,,2013-05-18 13:11:00,
2013-05-18 08:21:00,67.0,63.0,-100.00,ESE,105,2.0,3.0,89,-99.99,,,-99.99,,2013-05-18 13:21:00,
2013-05-18 08:33:00,67.0,62.0,-100.00,SE,135,4.0,5.0,84,-99.99,,,-99.99,,2013-05-18 13:33:00,
2013-05-18 08:43:00,67.0,62.0,-100.00,SE,135,4.0,5.0,84,-99.99,,,-99.99,,2013-05-18 13:43:00,
2013-05-18 08:51:00,69.0,61.0,-100.00,SE,140,7.0,9.0,77,-99.99,,,-99.99,,2013-05-18 13:51:00,
2013-05-18 08:52:00,68.0,62.0,-100.00,SE,140,6.0,8.0,79,-99.99,,,-99.99,,2013-05-18 13:52:00,
2013-05-18 09:03:00,68.0,62.0,-100.00,SE,140,6.0,8.0,79,-99.99,,,-99.99,,2013-05-18 14:03:00,
2013-05-18 09:12:00,69.0,61.0,-100.00,SE,140,7.0,9.0,77,-99.99,,,-99.99,,2013-05-18 14:12:00,
2013-05-18 09:22:00,69.0,61.0,-100.00,SE,140,7.0,9.0,77,-99.99,,,-99.99,,2013-05-18 14:22:00,
2013-05-18 09:32:00,69.0,61.0,-100.00,SE,140,7.0,9.0,77,-99.99,,,-99.99,,2013-05-18 14:32:00,
2013-05-18 09:42:00,69.0,61.0,-100.00,SE,140,7.0,9.0,77,-99.99,,,-99.99,,2013-05-18 14:42:00,
2013-05-18 10:53:00,77.0,57.0,-100.00,SE,125,11.0,14.0,50,-99.99,,,-99.99,,2013-05-18 15:53:00,
2013-05-18 11:03:00,77.0,57.0,-100.00,SE,125,11.0,14.0,50,-99.99,,,-99.99,,2013-05-18 16:03:00,
2013-05-18 11:13:00,77.0,57.0,-100.00,South,170,12.0,14.0,50,-99.99,,,-99.99,,2013-05-18 16:13:00,
2013-05-18 11:22:00,77.0,56.0,-100.00,SE,145,11.0,13.0,49,-99.99,,,-99.99,,2013-05-18 16:22:00,
2013-05-18 11:33:00,79.0,57.0,-100.00,SE,145,11.0,14.0,47,-99.99,,,-99.99,,2013-05-18 16:33:00,
2013-05-18 11:42:00,79.0,57.0,-100.00,SE,145,11.0,14.0,47,-99.99,,,-99.99,,2013-05-18 16:42:00,
2013-05-18 11:52:00,78.0,56.0,-100.00,SSE,165,9.0,11.0,47,-99.99,,,-99.99,,2013-05-18 16:52:00,
2013-05-18 12:02:00,78.0,56.0,-100.00,SSE,165,9.0,11.0,47,-99.99,,,-99.99,,2013-05-18 17:02:00,
2013-05-18 12:12:00,79.0,56.0,-100.00,SSE,165,12.0,14.0,45,-99.99,,,-99.99,,2013-05-18 17:12:00,
2013-05-18 12:22:00,78.0,56.0,-100.00,SSE,150,11.0,14.0,47,-99.99,,,-99.99,,2013-05-18 17:22:00,
2013-05-18 12:32:00,79.0,56.0,-100.00,SE,125,6.0,7.0,45,-99.99,,,-99.99,,2013-05-18 17:32:00,
2013-05-18 13:12:00,81.0,56.0,-100.00,SSE,155,11.0,16.0,43,-99.99,,,-99.99,,2013-05-18 18:12:00,
2013-05-18 13:21:00,81.0,56.0,-100.00,SSE,155,11.0,16.0,43,-99.99,,,-99.99,,2013-05-18 18:21:00,
2013-05-18 13:32:00,82.0,55.0,-100.00,SSE,150,10.0,11.0,40,-99.99,,,-99.99,,2013-05-18 18:32:00,
2013-05-18 14:11:00,82.0,56.0,-100.00,ESE,105,12.0,14.0,40,-99.99,,,-99.99,,2013-05-18 19:11:00,
2013-05-18 14:22:00,82.0,55.0,-100.00,SSE,150,14.0,16.0,39,-99.99,,,-99.99,,2013-05-18 19:22:00,
2013-05-18 14:32:00,83.0,55.0,-100.00,ESE,120,16.0,18.0,39,-99.99,,,-99.99,,2013-05-18 19:32:00,
2013-05-18 14:52:00,81.0,55.0,-100.00,SE,135,17.0,22.0,41,-99.99,,,-99.99,,2013-05-18 19:52:00,
2013-05-18 15:01:00,82.0,56.0,-100.00,SE,145,15.0,17.0,41,-99.99,,,-99.99,,2013-05-18 20:01:00,
2013-05-18 15:02:00,81.0,55.0,-100.00,SE,135,17.0,22.0,41,-99.99,,,-99.99,,2013-05-18 20:02:00,
2013-05-18 15:22:00,82.0,56.0,-100.00,SE,145,15.0,17.0,41,-99.99,,,-99.99,,2013-05-18 20:22:00,
2013-05-18 15:32:00,82.0,56.0,-100.00,SE,145,15.0,17.0,41,-99.99,,,-99.99,,2013-05-18 20:32:00,
2013-05-18 15:42:00,82.0,56.0,-100.00,SE,145,15.0,17.0,41,-99.99,,,-99.99,,2013-05-18 20:42:00,
2013-05-18 15:52:00,82.0,56.0,-100.00,SE,145,15.0,17.0,41,-99.99,,,-99.99,,2013-05-18 20:52:00,
2013-05-18 16:12:00,82.0,56.0,-100.00,SSE,160,17.0,20.0,41,-99.99,,,-99.99,,2013-05-18 21:12:00,
2013-05-18 16:21:00,82.0,56.0,-100.00,SSE,160,17.0,20.0,41,-99.99,,,-99.99,,2013-05-18 21:21:00,
2013-05-18 16:32:00,82.0,57.0,-100.00,ESE,115,17.0,21.0,42,-99.99,,,-99.99,,2013-05-18 21:32:00,
2013-05-18 16:43:00,82.0,57.0,-100.00,ESE,115,17.0,21.0,42,-99.99,,,-99.99,,2013-05-18 21:43:00,
2013-05-18 16:53:00,82.0,57.0,-100.00,SSE,160,14.0,17.0,42,-99.99,,,-99.99,,2013-05-18 21:53:00,
2013-05-18 17:03:00,82.0,57.0,-100.00,SSE,160,14.0,17.0,42,-99.99,,,-99.99,,2013-05-18 22:03:00,
2013-05-18 17:12:00,83.0,56.0,-100.00,SSE,150,19.0,23.0,41,-99.99,,,-99.99,,2013-05-18 22:12:00,
2013-05-18 17:23:00,82.0,56.0,-100.00,SSE,155,14.0,17.0,41,-99.99,,,-99.99,,2013-05-18 22:23:00,
2013-05-18 17:33:00,81.0,56.0,-100.00,SSE,150,14.0,18.0,42,-99.99,,,-99.99,,2013-05-18 22:33:00,
2013-05-18 17:42:00,81.0,56.0,-100.00,SSE,150,14.0,18.0,42,-99.99,,,-99.99,,2013-05-18 22:42:00,
2013-05-18 17:52:00,81.0,56.0,-100.00,SSE,150,14.0,18.0,42,-99.99,,,-99.99,,2013-05-18 22:52:00,
2013-05-18 18:01:00,81.0,56.0,-100.00,SSE,150,14.0,18.0,42,-99.99,,,-99.99,,2013-05-18 23:01:00,
2013-05-18 18:22:00,82.0,56.0,-100.00,SSE,155,15.0,19.0,41,-99.99,,,-99.99,,2013-05-18 23:22:00,
2013-05-18 18:32:00,82.0,56.0,-100.00,SSE,150,13.0,15.0,41,-99.99,,,-99.99,,2013-05-18 23:32:00,
2013-05-18 18:53:00,82.0,56.0,-100.00,SE,145,9.0,10.0,42,-99.99,,,-99.99,,2013-05-18 23:53:00,
2013-05-18 19:01:00,82.0,56.0,-100.00,SE,145,9.0,10.0,42,-99.99,,,-99.99,,2013-05-19 00:01:00,
2013-05-18 19:11:00,81.0,56.0,-100.00,SE,125,11.0,14.0,43,-99.99,,,-99.99,,2013-05-19 00:11:00,
2013-05-18 19:21:00,81.0,56.0,-100.00,SE,140,9.0,11.0,43,-99.99,,,-99.99,,2013-05-19 00:21:00,
2013-05-18 19:32:00,81.0,56.0,-100.00,SE,140,9.0,11.0,43,-99.99,,,-99.99,,2013-05-19 00:32:00,
2013-05-18 19:41:00,81.0,56.0,-100.00,SE,140,9.0,11.0,43,-99.99,,,-99.99,,2013-05-19 00:41:00,
2013-05-18 19:51:00,80.0,57.0,-100.00,ESE,115,12.0,15.0,45,-99.99,,,-99.99,,2013-05-19 00:51:00,
2013-05-18 20:01:00,80.0,57.0,-100.00,ESE,115,12.0,15.0,45,-99.99,,,-99.99,,2013-05-19 01:01:00,
2013-05-18 20:11:00,80.0,56.0,-100.00,SE,130,9.0,11.0,45,-99.99,,,-99.99,,2013-05-19 01:11:00,
2013-05-18 20:21:00,79.0,56.0,-100.00,ESE,120,11.0,12.0,46,-99.99,,,-99.99,,2013-05-19 01:21:00,
2013-05-18 20:32:00,79.0,57.0,-100.00,ESE,120,12.0,14.0,47,-99.99,,,-99.99,,2013-05-19 01:32:00,
2013-05-18 20:42:00,79.0,57.0,-100.00,ESE,120,12.0,14.0,47,-99.99,,,-99.99,,2013-05-19 01:42:00,
2013-05-18 20:52:00,77.0,57.0,-100.00,ESE,120,9.0,10.0,50,-99.99,,,-99.99,,2013-05-19 01:52:00,
2013-05-18 21:01:00,77.0,57.0,-100.00,ESE,120,9.0,10.0,50,-99.99,,,-99.99,,2013-05-19 02:01:00,
2013-05-18 21:11:00,77.0,57.0,-100.00,ESE,120,9.0,10.0,50,-99.99,,,-99.99,,2013-05-19 02:11:00,
2013-05-18 21:21:00,76.0,57.0,-100.00,SE,135,9.0,11.0,52,-99.99,,,-99.99,,2013-05-19 02:21:00,
2013-05-18 21:32:00,76.0,58.0,-100.00,ESE,115,10.0,14.0,55,-99.99,,,-99.99,,2013-05-19 02:32:00,
2013-05-18 21:42:00,76.0,58.0,-100.00,ESE,115,10.0,14.0,55,-99.99,,,-99.99,,2013-05-19 02:42:00,
2013-05-18 21:52:00,75.0,59.0,-100.00,SE,125,7.0,11.0,57,-99.99,,,-99.99,,2013-05-19 02:52:00,
2013-05-18 22:01:00,75.0,59.0,-100.00,SE,125,7.0,11.0,57,-99.99,,,-99.99,,2013-05-19 03:01:00,
2013-05-18 22:11:00,75.0,59.0,-100.00,ESE,120,9.0,12.0,59,-99.99,,,-99.99,,2013-05-19 03:11:00,
2013-05-18 22:21:00,75.0,59.0,-100.00,ESE,120,9.0,12.0,59,-99.99,,,-99.99,,2013-05-19 03:21:00,
2013-05-18 22:33:00,75.0,60.0,-100.00,ESE,120,12.0,14.0,60,-99.99,,,-99.99,,2013-05-19 03:33:00,
2013-05-18 22:42:00,75.0,60.0,-100.00,ESE,120,12.0,14.0,60,-99.99,,,-99.99,,2013-05-19 03:42:00,
2013-05-18 22:53:00,74.0,60.0,-100.00,SE,125,11.0,14.0,61,-99.99,,,-99.99,,2013-05-19 03:53:00,
2013-05-18 23:02:00,74.0,60.0,-100.00,SE,125,11.0,14.0,61,-99.99,,,-99.99,,2013-05-19 04:02:00,
2013-05-18 23:12:00,74.0,60.0,-100.00,SE,125,16.0,19.0,63,-99.99,,,-99.99,,2013-05-19 04:12:00,
2013-05-18 23:23:00,74.0,60.0,-100.00,SE,125,16.0,19.0,63,-99.99,,,-99.99,,2013-05-19 04:23:00,
2013-05-18 23:33:00,73.0,61.0,-100.00,ESE,120,12.0,16.0,65,-99.99,,,-99.99,,2013-05-19 04:33:00,
2013-05-18 23:42:00,73.0,61.0,-100.00,ESE,120,12.0,16.0,65,-99.99,,,-99.99,,2013-05-19 04:42:00,
2013-05-18 23:52:00,72.0,61.0,-100.00,SE,130,10.0,11.0,67,-99.99,,,-99.99,,2013-05-19 04:52:00,